QPF
0.00 0.00 0.00 0.00 0.00 0.00 0.00 0.00 0.00 0.01 0.02 0.02 0.01 0.01 0.03 0.03 0.06 0.03 0.01 0.08 0.11 0.08 0.04 0.01 0.00 0.00 0.00 0.00 0.00 0.00 0.00 0.00
0.00 0.00 0.00 0.00 0.00 0.00 0.00 0.00 0.01 0.03 0.05 0.03 0.01 0.00 0.01 0.03 0.01 0.00 0.00 0.00 0.01 0.00 0.00 0.00 0.00 0.00 0.00 0.00 0.00 0.00 0.00 0.00
0.00 0.00 0.00 0.00 0.00 0.00 0.00 0.01 0.03 0.05 0.04 0.01 0.00 0.00 0.01 0.01 0.00 0.00 0.00 0.01 0.00 0.00 0.00 0.00 0.00 0.00 0.00 0.00 0.00 0.00 0.00 0.00
0.00 0.00 0.00 0.00 0.00 0.00 0.00 0.00 0.02 0.03 0.02 0.01 0.01 0.01 0.01 0.00 0.00 0.00 0.00 0.00 0.00 0.00 0.00 0.01 0.02 0.02 0.01 0.01 0.00 0.00 0.00 0.00
0.00 0.00 0.00 0.00 0.00 0.00 0.00 0.00 0.01 0.02 0.02 0.01 0.02 0.01 0.00 0.00 0.00 0.00 0.00 0.00 0.00 0.00 0.00 0.00 0.00 0.00 0.00 0.00 0.00 0.00 0.00 0.00
0.00 0.00 0.00 0.00 0.00 0.00 0.00 0.00 0.00 0.00 0.00 0.00 0.00 0.00 0.00 0.00 0.00 0.00 0.00 0.00 0.00 0.00 0.00 0.00 0.00 0.00 0.00 0.00 0.00 0.00 0.00 0.00
0.00 0.00 0.00 0.00 0.00 0.00 0.00 0.00 0.00 0.00 0.00 0.00 0.00 0.00 0.00 0.00 0.00 0.00 0.00 0.00 0.00 0.00 0.00 0.00 0.00 0.00 0.00 0.00 0.00 0.00 0.00 0.00
0.00 0.00 0.00 0.00 0.00 0.00 0.00 0.00 0.00 0.00 0.00 0.00 0.00 0.00 0.00 0.00 0.00 0.00 0.00 0.00 0.00 0.00 0.00 0.00 0.00 0.00 0.00 0.00 0.00 0.00 0.00 0.00
0.00 0.00 0.00 0.00 0.00 0.00 0.00 0.00 0.00 0.00 0.00 0.00 0.00 0.00 0.00 0.00 0.00 0.00 0.00 0.00 0.00 0.00 0.00 0.00 0.00 0.00 0.00 0.00 0.00 0.00 0.00 0.00
0.00 0.00 0.00 0.00 0.00 0.00 0.00 0.00 0.00 0.00 0.00 0.00 0.00 0.00 0.00 0.00 0.00 0.00 0.00 0.00 0.00 0.00 0.00 0.00 0.00 0.00 0.00 0.00 0.00 0.00 0.00 0.00
0.00 0.00 0.00 0.00 0.00 0.00 0.00 0.00 0.00 0.00 0.00 0.00 0.00 0.00 0.00 0.00 0.00 0.00 0.00 0.00 0.00 0.00 0.00 0.00 0.00 0.00 0.00 0.00 0.00 0.00 0.00 0.00
0.00 0.00 0.00 0.00 0.00 0.00 0.00 0.00 0.00 0.00 0.00 0.00 0.00 0.00 0.00 0.00 0.00 0.00 0.00 0.00 0.00 0.00 0.00 0.00 0.00 0.00 0.00 0.00 0.00 0.00 0.00 0.00
0.00 0.00 0.00 0.00 0.00 0.00 0.00 0.00 0.00 0.00 0.00 0.00 0.00 0.00 0.00 0.00 0.00 0.00 0.00 0.00 0.00 0.00 0.00 0.00 0.00 0.00 0.00 0.00 0.00 0.00 0.00 0.00
0.00 0.00 0.00 0.00 0.00 0.00 0.00 0.00 0.00 0.00 0.00 0.00 0.00 0.00 0.00 0.00 0.00 0.00 0.00 0.00 0.00 0.00 0.00 0.00 0.00 0.00 0.00 0.00 0.00 0.00 0.00 0.00
0.00 0.00 0.00 0.00 0.00 0.00 0.00 0.00 0.00 0.00 0.00 0.00 0.00 0.00 0.00 0.00 0.00 0.00 0.00 0.00 0.00 0.00 0.00 0.00 0.00 0.00 0.00 0.00 0.00 0.00 0.00 0.00
0.00 0.00 0.00 0.00 0.00 0.00 0.00 0.00 0.00 0.00 0.00 0.00 0.00 0.00 0.00 0.00 0.00 0.00 0.00 0.00 0.00 0.00 0.00 0.00 0.00 0.00 0.00 0.00 0.00 0.00 0.00 0.00
0.00 0.00 0.00 0.00 0.00 0.00 0.00 0.00 0.00 0.00 0.00 0.00 0.00 0.00 0.00 0.00 0.00 0.00 0.00 0.00 0.00 0.00 0.00 0.00 0.00 0.00 0.00 0.00 0.00 0.00 0.00 0.00
0.00 0.00 0.00 0.00 0.00 0.00 0.00 0.00 0.00 0.00 0.00 0.00 0.00 0.00 0.00 0.00 0.00 0.00 0.00 0.00 0.00 0.00 0.00 0.00 0.00 0.00 0.00 0.00 0.00 0.00 0.00 0.00
0.00 0.00 0.00 0.00 0.00 0.00 0.00 0.00 0.00 0.00 0.00 0.00 0.00 0.00 0.00 0.00 0.00 0.00 0.00 0.00 0.00 0.00 0.00 0.00 0.00 0.00 0.00 0.00 0.00 0.00 0.00 0.00
MSLP
1008.62 1008.78 1008.64 1008.27 1008.04 1008.78 1011.20 1012.38 1013.55 1014.54 1015.53 1016.42 1016.90 1017.29 1017.67 1017.88 1018.10 1018.67 1017.65 1018.14 1018.48 1018.09 1018.68 1019.39 1020.19 1019.18 1018.45 1018.68 1018.51 1018.65 1018.40 1019.64
1009.15 1009.99 1009.93 1009.60 1009.94 1010.77 1012.02 1013.23 1014.32 1014.91 1015.74 1016.29 1016.99 1017.36 1017.71 1017.83 1017.90 1018.65 1017.76 1018.26 1018.52 1018.38 1018.27 1018.99 1018.93 1018.68 1018.84 1019.07 1019.00 1019.10 1019.28 1020.15
1009.80 1010.84 1011.39 1011.46 1011.79 1012.36 1013.07 1013.83 1014.59 1015.07 1015.46 1016.08 1016.57 1017.26 1017.68 1017.85 1018.27 1018.25 1017.81 1018.46 1018.57 1018.51 1018.57 1018.89 1018.94 1018.82 1019.24 1019.61 1019.42 1019.32 1019.31 1019.56
1010.10 1011.28 1011.84 1012.27 1012.62 1013.19 1013.75 1014.34 1014.94 1015.28 1015.38 1015.82 1016.29 1016.68 1017.41 1018.15 1018.59 1018.42 1018.23 1018.51 1018.94 1019.37 1019.52 1019.62 1019.73 1019.34 1019.06 1019.65 1019.82 1019.61 1019.51 1019.58
1010.18 1011.30 1012.06 1012.83 1013.47 1013.89 1014.42 1014.66 1014.95 1015.22 1015.18 1015.18 1015.35 1015.53 1016.37 1017.43 1018.13 1018.04 1018.39 1018.84 1019.45 1019.66 1019.85 1019.99 1019.98 1019.75 1019.58 1019.63 1019.48 1019.35 1019.37 1019.43
1010.01 1011.01 1011.83 1012.70 1013.29 1013.58 1014.23 1014.72 1015.07 1015.11 1014.86 1014.70 1015.11 1015.43 1016.11 1016.71 1016.95 1017.62 1018.26 1018.87 1019.03 1019.27 1019.58 1019.58 1019.47 1019.27 1019.47 1019.48 1019.54 1019.71 1019.62 1019.52
1009.93 1010.71 1011.37 1012.44 1012.97 1013.26 1013.79 1014.19 1014.29 1014.31 1014.36 1014.54 1014.47 1014.93 1015.03 1015.60 1016.33 1017.12 1017.71 1018.28 1018.65 1018.78 1018.91 1019.04 1019.04 1019.11 1019.30 1019.43 1019.56 1019.79 1019.93 1019.73
1009.55 1010.01 1010.80 1011.99 1012.84 1013.19 1013.51 1013.45 1013.51 1013.71 1013.85 1014.17 1014.32 1014.66 1015.04 1015.32 1016.02 1016.04 1016.43 1016.86 1017.38 1018.00 1018.26 1018.40 1018.30 1018.61 1018.97 1019.12 1019.53 1019.80 1019.84 1019.67
1009.07 1009.61 1010.37 1011.15 1011.98 1012.51 1012.59 1012.72 1013.11 1013.47 1013.81 1014.15 1014.49 1014.49 1014.65 1014.89 1015.41 1015.36 1015.94 1016.11 1016.64 1017.31 1018.00 1018.12 1018.27 1018.51 1018.94 1019.12 1019.24 1019.42 1019.53 1019.65
1008.93 1009.48 1010.09 1010.62 1011.16 1011.84 1012.07 1012.10 1012.58 1013.13 1013.56 1013.85 1014.14 1014.43 1014.51 1014.63 1015.28 1015.74 1015.93 1016.24 1016.35 1017.05 1017.32 1017.50 1017.69 1018.10 1018.40 1018.62 1018.99 1019.18 1019.39 1019.55
1008.79 1009.35 1009.90 1010.22 1010.72 1011.40 1011.82 1011.93 1012.06 1012.44 1013.13 1013.64 1013.85 1014.32 1014.60 1014.89 1015.36 1015.59 1015.64 1016.03 1016.33 1016.72 1017.14 1017.50 1017.69 1017.86 1018.08 1018.32 1018.34 1018.87 1019.12 1019.28
1008.28 1008.78 1009.56 1010.00 1010.54 1010.99 1011.67 1011.96 1012.17 1012.46 1012.96 1013.52 1013.84 1014.20 1014.54 1015.04 1015.31 1015.47 1015.85 1016.30 1016.76 1016.97 1017.07 1017.41 1017.60 1017.88 1017.99 1018.16 1018.36 1018.46 1018.95 1019.13
1007.82 1008.43 1009.09 1009.73 1010.20 1010.49 1011.10 1011.62 1012.00 1012.48 1012.75 1013.45 1013.89 1014.29 1014.68 1015.08 1015.55 1015.87 1016.22 1016.32 1016.40 1016.58 1016.64 1016.97 1017.18 1017.25 1017.88 1018.16 1018.04 1018.28 1018.87 1019.05
1007.30 1007.88 1008.52 1009.19 1009.83 1010.28 1010.73 1011.29 1011.97 1012.49 1012.74 1013.36 1013.95 1014.35 1014.64 1014.95 1015.32 1015.82 1016.17 1016.37 1016.52 1016.67 1016.89 1016.81 1016.90 1017.26 1017.34 1017.96 1018.17 1018.24 1018.81 1019.21
1006.87 1007.37 1008.09 1008.77 1009.41 1010.10 1010.66 1011.28 1012.00 1012.51 1012.85 1013.27 1013.75 1014.23 1014.51 1014.81 1015.44 1015.83 1016.23 1016.58 1016.70 1016.80 1016.82 1016.88 1016.88 1017.30 1017.59 1017.82 1018.31 1018.57 1019.02 1019.63
1006.17 1006.88 1007.61 1008.32 1009.23 1010.46 1011.03 1011.22 1012.31 1012.58 1012.94 1013.43 1013.97 1014.71 1015.15 1015.52 1015.88 1016.15 1016.34 1016.78 1016.88 1016.88 1016.96 1017.15 1017.04 1017.24 1017.75 1018.07 1018.61 1019.21 1019.48 1019.99
1005.87 1006.64 1007.20 1008.23 1009.57 1010.75 1011.38 1011.94 1012.64 1013.03 1013.54 1014.09 1014.69 1015.33 1015.64 1016.08 1016.43 1016.73 1017.13 1017.49 1017.84 1017.98 1017.95 1017.54 1017.50 1018.00 1018.79 1019.06 1019.14 1019.65 1019.96 1020.43
1005.54 1006.51 1007.54 1009.31 1010.50 1011.15 1011.74 1012.65 1013.37 1013.55 1014.16 1014.77 1015.16 1015.62 1016.10 1016.45 1016.96 1017.41 1017.63 1018.08 1018.50 1018.85 1019.06 1018.63 1018.75 1019.08 1019.84 1020.06 1020.04 1020.35 1020.79 1021.22
1005.62 1006.92 1008.69 1010.26 1011.51 1011.73 1012.79 1013.65 1014.20 1014.51 1015.14 1015.64 1016.17 1016.70 1017.22 1017.49 1018.11 1018.84 1019.09 1019.21 1019.62 1020.19 1019.89 1019.67 1019.88 1020.14 1020.64 1020.82 1020.97 1021.29 1021.61 1021.92
Thickness
5745 5746 5749 5752 5753 5747 5725 5715 5705 5694 5685 5677 5672 5667 5661 5656 5649 5641 5648 5642 5637 5636 5628 5617 5610 5620 5624 5622 5621 5618 5624 5615
5736 5729 5731 5735 5732 5725 5714 5702 5693 5688 5680 5674 5667 5660 5655 5651 5647 5638 5642 5635 5630 5630 5628 5621 5619 5620 5613 5610 5607 5607 5606 5602
5722 5714 5711 5712 5710 5705 5700 5693 5686 5682 5678 5671 5665 5656 5648 5643 5636 5637 5639 5630 5626 5622 5619 5615 5610 5610 5603 5596 5597 5600 5599 5599
5712 5703 5702 5701 5699 5695 5690 5684 5678 5674 5673 5668 5661 5655 5644 5633 5627 5627 5626 5620 5614 5608 5603 5600 5598 5600 5600 5593 5589 5589 5589 5589
5706 5698 5694 5689 5685 5683 5679 5676 5672 5668 5667 5665 5660 5657 5646 5633 5622 5621 5613 5607 5601 5596 5593 5590 5588 5588 5588 5586 5586 5584 5583 5580
5700 5694 5690 5684 5680 5679 5674 5668 5664 5662 5662 5661 5653 5648 5639 5632 5628 5618 5608 5598 5592 5586 5581 5580 5581 5582 5578 5577 5573 5570 5570 5569
5694 5691 5687 5678 5676 5674 5669 5665 5663 5662 5658 5652 5648 5641 5638 5630 5621 5611 5603 5595 5588 5583 5578 5572 5570 5567 5565 5562 5561 5558 5556 5556
5689 5687 5682 5673 5666 5665 5664 5664 5660 5656 5652 5646 5641 5634 5627 5621 5612 5610 5604 5597 5591 5583 5577 5572 5571 5565 5558 5554 5549 5545 5543 5543
5685 5682 5678 5672 5665 5662 5661 5659 5653 5647 5642 5637 5630 5627 5622 5617 5609 5606 5598 5593 5588 5579 5569 5564 5560 5555 5547 5541 5538 5535 5532 5529
5677 5674 5670 5667 5662 5657 5656 5653 5648 5640 5634 5628 5623 5618 5613 5608 5600 5593 5590 5585 5581 5572 5565 5559 5553 5544 5537 5532 5526 5522 5518 5515
5669 5665 5663 5662 5658 5652 5647 5644 5640 5635 5626 5618 5614 5607 5601 5596 5589 5584 5582 5576 5569 5562 5554 5547 5541 5534 5527 5520 5516 5508 5503 5501
5663 5661 5658 5654 5649 5644 5636 5631 5627 5622 5615 5609 5602 5596 5591 5583 5578 5574 5568 5561 5552 5546 5541 5533 5526 5519 5514 5507 5500 5497 5491 5488
5659 5655 5650 5644 5639 5635 5629 5622 5617 5610 5605 5597 5590 5584 5577 5570 5564 5559 5551 5546 5542 5536 5532 5523 5516 5511 5500 5493 5491 5486 5478 5475
5652 5648 5641 5636 5630 5624 5619 5613 5604 5597 5592 5585 5578 5571 5566 5560 5554 5545 5539 5532 5525 5519 5511 5509 5504 5497 5492 5483 5477 5474 5467 5462
5646 5639 5631 5627 5621 5614 5608 5600 5592 5584 5579 5573 5567 5560 5554 5549 5539 5532 5524 5515 5508 5502 5498 5494 5491 5483 5477 5471 5464 5459 5454 5447
5638 5630 5623 5619 5611 5599 5592 5588 5576 5571 5567 5560 5552 5542 5536 5530 5523 5514 5508 5499 5493 5488 5483 5477 5474 5470 5463 5457 5449 5442 5438 5432
5630 5623 5617 5608 5593 5581 5577 5568 5560 5554 5548 5541 5532 5524 5519 5512 5503 5495 5488 5479 5472 5466 5461 5460 5457 5452 5439 5434 5431 5425 5421 5415
5621 5611 5602 5585 5574 5565 5559 5550 5542 5538 5531 5523 5517 5510 5503 5496 5486 5476 5470 5461 5453 5446 5439 5438 5433 5428 5418 5414 5411 5408 5402 5396
5608 5594 5578 5564 5552 5549 5538 5529 5522 5517 5511 5505 5498 5490 5480 5472 5461 5450 5443 5437 5430 5421 5419 5417 5411 5406 5400 5396 5392 5388 5383 5378